Weather History for Detroit, MI

Change the Weather History Date:

Tuesday, July 12, 2005

  Actual Average Record
Temperature  
Mean Temperature 82 °F -  
Max Temperature 89 °F 82 °F 98 °F (1952)
Min Temperature 75 °F 65 °F 52 °F (1974)
Cooling Degree Days 17    
Growing Degree Days 32 (Base 50)    
Moisture  
Dew Point 64 °F    
Average Humidity 57    
Maximum Humidity 82    
Minimum Humidity 40    
Precipitation  
Precipitation 0.00 in - - ()
Sea Level Pressure  
Sea Level Pressure 30.00 in    
Wind  
Wind Speed 6 mph (ENE)    
Max Wind Speed 13 mph    
Max Gust Speed -    
Visibility 10 miles    
Events Thunderstorm    
Averages and records for this station are not official NWS values.
T = Trace of Precipitation, MM = Missing Value Source: NWS Daily Summary

Daily Weather History Graph

Daily Weather History Graph

Search for Another Location

Airport:

Trip Planner

Search our weather history database for the weather conditions in past years. The results will help you decide how hot, cold, wet, or windy it might be!

Date:

Astronomy

Jul. 12, 2005 Rise Set
Actual Time 6:06 AM EDT 9:08 PM EDT
Civil Twilight 5:32 AM EDT 9:42 PM EDT
Nautical Twilight 4:48 AM EDT 10:25 PM EDT
Astronomical Twilight 3:57 AM EDT 11:16 PM EDT
Moon 11:55 AM EDT (7/12) 12:03 AM EDT (7/12)
Length of Visible Light 16h 10m
Length of Day
15h 02m
Waxing Crescent, 31% of the Moon is Illuminated
Jul 12
Waxing Crescent
Jul 14
First Quarter
Jul 21
Full
Jul 27
Last Quarter
Aug 4
New

Hourly Weather History & Observations

Time (EDT) Temp. Heat Index Dew Point Humidity Pressure Visibility Wind Dir Wind Speed Gust Speed Precip Events Conditions
12:53 AM 78.1 °F - 60.1 °F 54% 30.04 in 10.0 mi NE 4.6 mph - N/A   Clear
1:53 AM 77.0 °F - 64.9 °F 66% 30.03 in 10.0 mi ENE 4.6 mph - N/A   Clear
2:53 AM 75.9 °F - 66.9 °F 74% 30.03 in 10.0 mi NE 4.6 mph - N/A   Clear
3:53 AM 75.0 °F - 66.9 °F 76% 30.03 in 10.0 mi East 4.6 mph - N/A   Clear
4:53 AM 75.0 °F - 68.0 °F 79% 30.02 in 10.0 mi ENE 3.5 mph - N/A   Clear
5:53 AM 75.0 °F - 69.1 °F 82% 30.02 in 10.0 mi Calm Calm - N/A   Clear
6:53 AM 75.0 °F - 69.1 °F 82% 30.03 in 10.0 mi NNE 3.5 mph - N/A   Clear
7:53 AM 77.0 °F - 66.0 °F 69% 30.03 in 10.0 mi ENE 4.6 mph - N/A   Clear
8:53 AM 78.1 °F - 63.0 °F 60% 30.03 in 10.0 mi East 4.6 mph - N/A   Clear
9:53 AM 79.0 °F - 64.0 °F 60% 30.02 in 9.0 mi East 6.9 mph - N/A   Clear
10:53 AM 80.1 °F 81.7 °F 64.0 °F 58% 30.02 in 10.0 mi East 8.1 mph - N/A   Clear
11:53 AM 82.9 °F 84.4 °F 64.0 °F 53% 30.01 in 10.0 mi East 9.2 mph - N/A   Clear
12:53 PM 87.1 °F 88.3 °F 64.0 °F 46% 30.00 in 10.0 mi East 10.4 mph - N/A   Scattered Clouds
1:53 PM 87.1 °F 88.3 °F 64.0 °F 46% 29.99 in 10.0 mi NE 11.5 mph - N/A   Clear
2:53 PM 88.0 °F 87.9 °F 61.0 °F 40% 29.98 in 10.0 mi East 10.4 mph - N/A   Clear
3:53 PM 88.0 °F 87.9 °F 61.0 °F 40% 29.97 in 10.0 mi ENE 12.7 mph - N/A   Clear
4:53 PM 88.0 °F 87.9 °F 61.0 °F 40% 29.96 in 10.0 mi ENE 10.4 mph - N/A   Partly Cloudy
5:53 PM 87.1 °F 87.8 °F 63.0 °F 44% 29.95 in 10.0 mi NE 9.2 mph - N/A   Clear
6:53 PM 89.1 °F 89.3 °F 62.1 °F 40% 29.94 in 10.0 mi ENE 12.7 mph - N/A   Clear
7:53 PM 86.0 °F 85.7 °F 60.1 °F 41% 29.96 in 10.0 mi ENE 11.5 mph - N/A   Scattered Clouds
8:53 PM 84.0 °F 84.4 °F 61.0 °F 46% 29.96 in 10.0 mi NE 8.1 mph - N/A   Overcast
9:53 PM 82.9 °F 84.0 °F 63.0 °F 51% 29.96 in 10.0 mi NE 8.1 mph - N/A   Mostly Cloudy
10:53 PM 82.0 °F 84.5 °F 66.9 °F 60% 29.98 in 10.0 mi SE 8.1 mph - N/A   Mostly Cloudy
11:10 PM 82.4 °F 84.6 °F 66.2 °F 58% 30.00 in 10.0 mi SE 8.1 mph - N/A Thunderstorm Overcast
11:25 PM 82.4 °F 83.9 °F 64.4 °F 54% 30.00 in 10.0 mi Calm Calm - N/A   Mostly Cloudy
11:53 PM 81.0 °F 82.7 °F 64.9 °F 58% 29.98 in 10.0 mi West 4.6 mph - 0.00 in   Mostly Cloudy